Regional Weather Roundup
Issued by NWS

Home | Current Version | Previous Version | Graphics & Text | Print | Product List | Glossary On
Versions: 1 2 3 4 5 6 7 8 9 10 11 12 13 14 15 16 17 18 19 20 21 22 23 24 25 26 27 28 29 30 31 32 33 34 35 36 37 38 39 40 41 42 43 44 45 46 47 48 49 50
000
ASUS43 KLSX 211007
RWRMO

WEATHER SUMMARY FOR MISSOURI
NATIONAL WEATHER SERVICE SPRINGFIELD MO
400 AM CST WED FEB 21 2018

NOTE: "FAIR" INDICATES FEW OR NO CLOUDS BELOW 12,000 FEET WITH NO
       SIGNIFICANT WEATHER AND/OR OBSTRUCTIONS TO VISIBILITY.
       CURRENT SKY AND/OR WEATHER CONDITIONS ARE NOT AVAILABLE FOR
       CHILLICOTHE AND FARMINGTON.

MOZ001>031-035>038-043-044-053-054-211100-
...NORTHERN AND WESTERN MISSOURI...

CITY           SKY/WX    TMP DP  RH WIND       PRES   REMARKS
KANSAS CTY INT CLOUDY    16  11  80 N10       30.49R WCI   4
KANSAS C DTWN  MOCLDY    19  12  74 NW10      30.50R WCI   7
LEE`S SUMMIT   MOCLDY    19  15  84 N14       30.46R WCI   6
ST JOSEPH      CLOUDY    15  11  83 N13       30.54R WCI   1
CHILLICOTHE      N/A     20  15  81 N5        30.50R WCI  13
KIRKSVILLE     MOCLDY    20  17  88 N12       30.44R WCI   8

$$
MOZ066>068-077>081-088>096-101>105-211100-
...SOUTHWEST MISSOURI...

CITY           SKY/WX    TMP DP  RH WIND       PRES   REMARKS
SPRINGFIELD    CLOUDY    27  25  92 N12       30.31R WCI  17
JOPLIN         CLOUDY    25  22  88 N14       30.38S WCI  13

$$
MOZ032>034-039>042-045>050-055>058-069>072-211100-
...CENTRAL MISSOURI...

CITY           SKY/WX    TMP DP  RH WIND       PRES   REMARKS
COLUMBIA       CLOUDY    26  21  81 N14       30.40R WCI  14
JEFFERSON CITY CLOUDY    27  21  78 N12       30.43R WCI  17
ROLLA          CLOUDY    26  26 100 N9        30.36R WCI  17
SEDALIA        CLOUDY    24  22  91 N15       30.44R WCI  11
WHITEMAN AFB   MOCLDY    22  17  82 N3        30.40R
WARRENSBURG    CLOUDY    21  18  86 N6        30.45R WCI  14
OSAGE BEACH    CLOUDY    26  24  92 NE8       30.39S WCI  18

$$
MOZ051-052-059>065-211100-
...EAST CENTRAL MISSOURI...

CITY           SKY/WX    TMP DP  RH WIND       PRES   REMARKS
ST LOUIS INTL  FRZ RAIN  30  28  92 NW14      30.37R WCI  19
SPIRIT OF STL  FRZ RAIN  30  28  92 N14       30.37R WCI  19
ST CHARLES     FRZ RAIN  29  27  92 N10       30.38R FOG     WCI  20

$$
MOZ072>076-082>087-097>100-106>115-211100-
...SOUTH CENTRAL AND SOUTHEAST MISSOURI...

CITY           SKY/WX    TMP DP  RH WIND       PRES   REMARKS
CAPE GIRARDEAU LGT RAIN  38  35  89 N14       30.30R WCI  30
FARMINGTON     MIX PCPN  33  31  92 N10       30.29F WCI  25
POPLAR BLUFF   LGT RAIN  42  40  92 N16       30.25R
WEST PLAINS    LGT RAIN  34  31  88 N12G21    30.28F WCI  25

$$



USA.gov is the U.S. government's official web portal to all federal, state and local government web resources and services.